Regional Weather Roundup
Issued by NWS

Home | Current Version | Previous Version | Graphics & Text | Print | Product List | Glossary On
Versions: 1 2 3 4 5 6 7 8 9 10 11 12 13 14 15 16 17 18 19 20 21 22 23 24 25 26 27
000
ASUS45 KSLC 211610
RWRUT

UTAH REGIONAL WEATHER ROUNDUP
NATIONAL WEATHER SERVICE SALT LAKE CITY UT
900 AM MST SUN JAN 21 2018

UTZ001>011-023>025-211700-

NORTHERN UTAH

CITY           SKY/WX    TMP DP  RH WIND       PRES   REMARKS
BRIGHAM CITY   MOSUNNY   28  19  70 CALM      30.15R
HILL AFB       CLOUDY    24  19  81 E5        30.13R WCI  18
LOGAN          CLOUDY    24  18  77 CALM      30.14R
OGDEN          CLOUDY    27  20  75 E3        30.13R
SALT LAKE CITY PTSUNNY   29  22  75 N3        30.15R
TOOELE VALLEY  CLOUDY    27  23  86 CALM      30.17R
WENDOVER       PTCLDY    32  16  51 W5        30.18R WCI  27
HEBER CITY     CLOUDY    21  12  68 CALM      30.06R
WEST JORDAN    CLOUDY    25  22  89 CALM      30.15R

$$

UTZ011>015-024>027-211700-

CENTRAL/NORTHEAST UTAH

CITY           SKY/WX    TMP DP  RH WIND       PRES   REMARKS
PROVO AIRPORT  PTSUNNY   28  19  69 NW14      30.14R WCI  17
MOAB/CANYONLAN CLOUDY    30  20  66 NW16      29.93R WCI  19
DELTA          CLOUDY    19  18  93 S8        30.17R WCI   9
PRICE          PTSUNNY   24   9  52 NW30G46   29.94R WCI   7
RICHFIELD      CLOUDY    25  21  86 CALM      30.15R
ROOSEVELT      SUNNY     23  14  68 SW8       29.98R WCI  14
VERNAL         MOSUNNY   28   9  44 N3        29.94R

$$

UTZ013>016-019>022-027-211700-

SOUTHERN UTAH

CITY           SKY/WX    TMP DP  RH WIND       PRES   REMARKS
BRYCE CANYON   SUNNY     16  10  77 NW15      30.02R WCI   1
CEDAR CITY     CLOUDY    20  16  84 CALM      30.14R
MILFORD        CLOUDY    23  17  78 SE5       30.17R WCI  17
ST GEORGE      MOSUNNY   35  21  56 SE6       30.21R WCI  30
HANKSVILLE     PTSUNNY   32  10  40 NW12      30.01R WCI  23
KANAB          SUNNY     25  18  74 S3        30.15R
BLANDING         N/A     25  16  69 NW16G22   29.94R WCI  12

$$

REGIONAL REPORTS     COLORADO/ARIZONA

CITY           SKY/WX    TMP DP  RH WIND       PRES   REMARKS
CRAIG, CO      SNOW      21  17  84 SW15      29.79R VSB 1/2 WCI   8
GRAND JUNCTION LGT SNOW  28  27  96 W12       29.90R VSB 1   WCI  18
RIFLE, CO      CLOUDY    28  15  58 NW16G25   29.84R WCI  16
MONTROSE, CO   CLOUDY    25  20  81 W18G29    29.86R WCI  11
CORTEZ, CO     SNOW      24  23  96 MISG      29.88R VSB 1/4
COLORADO CITY    N/A     32  14  47 NW8       30.14R WCI  25
PAGE, AZ       MOSUNNY   36   9  32 W8G22     30.04R WCI  30
GRAND CANYON   MOSUNNY   21  14  74 VRB5      30.04R WCI  15
KINGMAN, AZ    SUNNY    N/A N/A N/A CALM      30.20R
FLAGSTAFF, AZ  SUNNY     20  10  65 N10G24    30.00R WCI   9

$$

REGIONAL REPORTS    NEVADA/IDAHO/WYOMING

CITY           SKY/WX    TMP DP  RH WIND       PRES   REMARKS
LAS VEGAS, NV  SUNNY     43  15  32 NW8       30.25R
ELY, NY        MOSUNNY   -2  -3  96 S7        30.17R WCI -15
ELKO, NV       CLEAR     21  17  84 CALM      30.22R
POCATELLO, ID  PTCLDY    26  22  84 W12       30.17R WCI  16
BURLEY, ID     CLEAR     28  22  78 W9        30.17R WCI  19
FORT BRIDGER,  LGT SNOW  17  15  93 W17G25    30.00R WCI   1
EVANSTON, WY   CLOUDY    14  11  87 W10       30.00R WCI   1
ROCK SPRINGS,  SNOW      17  14  88 W9        29.97R VSB 1/4 WCI   6

$$




USA.gov is the U.S. government's official web portal to all federal, state and local government web resources and services.